Regional Weather Roundup
Issued by NWS Little Rock, AR

Home | Current Version | Previous Version | Graphics & Text | Print | Product List | Glossary On
Versions: 1 2 3 4 5 6 7 8 9 10 11 12 13 14 15 16 17 18 19 20 21 22 23 24 25 26 27 28 29 30 31 32 33 34 35 36 37 38 39 40 41 42 43 44 45 46 47 48 49 50
000
ASUS44 KLZK 022105
RWRLZK

WEATHER ROUNDUP FOR ARKANSAS
NATIONAL WEATHER SERVICE LITTLE ROCK AR
400 PM CDT SUN AUG 02 2015

NOTE: "FAIR" INDICATES FEW OR NO CLOUDS BELOW 12,000 FEET WITH NO
SIGNIFICANT WEATHER AND/OR OBSTRUCTIONS TO VISIBILITY.

ARZ001-003-010-029-022200-
NORTHWEST ARKANSAS

CITY           SKY/WX    TMP DP  RH WIND       PRES   REMARKS
FAYETTEVILLE   SUNNY     89  64  43 W8        29.97F HX  90
FORT SMITH     SUNNY     97  62  31 N7        29.90F HX  98
HARRISON       MOSUNNY   91  66  43 W7        29.96F HX  93
BENTONVILLE    MOSUNNY   90  63  40 W12       29.98F HX  90
ROGERS         PTSUNNY   90  63  40 SW10G17   29.98F HX  91
SILOAM SPGS    SUNNY     90  63  40 SW9       29.96F HX  90
HIGHFILL       MOSUNNY   91  63  39 SW9       29.97F HX  92
SPRINGDALE     MOSUNNY   90  64  43 SW9       29.99F HX  91
$$

ARZ004-005-016-022200-
NORTH CENTRAL ARKANSAS

CITY           SKY/WX    TMP DP  RH WIND       PRES   REMARKS
BATESVILLE     MOSUNNY   93  63  36 SW5       29.92F HX  94
FLIPPIN        MOSUNNY   93  61  33 W7        29.91F HX  93
MTN HOME       MOSUNNY   90  66  45 VRB5      29.93F HX  92
$$

ARZ040-041-022200-
WEST CENTRAL ARKANSAS

CITY           SKY/WX    TMP DP  RH WIND       PRES   REMARKS
MENA           MOSUNNY   97  54  23 E8        29.95F HX  94
MOUNT IDA      SUNNY     96  56  26 CALM      29.92F HX  94
$$

ARZ009-017-025-026-028-022200-
NORTHEAST ARKANSAS

CITY           SKY/WX    TMP DP  RH WIND       PRES   REMARKS
JONESBORO      PTSUNNY   90  68  48 VRB3      29.91F HX  94
NEWPORT        MOSUNNY   95  64  35 VRB3      29.93F HX  97
WALNUT RIDGE   MOSUNNY   93  64  38 W6        29.90F HX  95
BLYTHEVILLE    MOSUNNY   91  74  57 VRB3      29.92F HX 100
$$

ARZ022-023-033-042-044-022200-
CENTRAL ARKANSAS

CITY           SKY/WX    TMP DP  RH WIND       PRES   REMARKS
LITTLE ROCK    PTSUNNY   96  64  34 S10       29.90F HX  98
N LITTLE ROCK  PTSUNNY   94  65  38 SE5       29.90F HX  96
JACKSONVILLE   SUNNY     96  63  33 SW3       29.91F HX  98
SEARCY         SUNNY     95  69  42 S8        29.92F HX 100
HOT SPRINGS    MOSUNNY   97  51  21 S7        29.92F HX  94
RUSSELLVILLE   MOSUNNY   96  57  27 CALM      29.90F HX  95
$$

ARZ036-022200-
EAST ARKANSAS

CITY           SKY/WX    TMP DP  RH WIND       PRES   REMARKS
WEST MEMPHIS   MOSUNNY   92  72  51 MISG      29.91F HX  99
$$

ARZ050-053-066-070-073-022200-
SOUTHWEST ARKANSAS

CITY           SKY/WX    TMP DP  RH WIND       PRES   REMARKS
ARKADELPHIA    FAIR     101  54  20 VRB3      29.91F HX  99
CAMDEN         SUNNY     97  57  26 CALM      29.90F HX  95
TEXARKANA      SUNNY     95  58  28 MISG      29.92F HX  94
EL DORADO      SUNNY     96  58  27 VRB6      29.91F HX  95
DE QUEEN       SUNNY     96  62  32 VRB6      29.90F HX  97
$$

ARZ056-057-069-022200-
SOUTHEAST ARKANSAS

CITY           SKY/WX    TMP DP  RH WIND       PRES   REMARKS
PINE BLUFF     SUNNY     95  65  37 NE7       29.92F HX  97
STUTTGART      SUNNY     91  64  40 N3        29.92F HX  93
MONTICELLO     MOSUNNY   95  62  33 NE8       29.91F HX  96

$$





USA.gov is the U.S. government's official web portal to all federal, state and local government web resources and services.